Weather History for PHKO - March, 2014

Change the Weather History Date:

Wednesday, March 26, 2014

  Actual Average Record
Temperature  
Mean Temperature 78 °F -  
Max Temperature 84 °F 79 °F 89 °F (1986)
Min Temperature 73 °F 68 °F 66 °F (2008)
Cooling Degree Days 14    
Growing Degree Days 28 (Base 50)    
Moisture  
Dew Point 66 °F    
Average Humidity 65    
Maximum Humidity 79    
Minimum Humidity 52    
Precipitation  
Precipitation 0.00 in - - ()
Sea Level Pressure  
Sea Level Pressure 30.07 in    
Wind  
Wind Speed 7 mph (West)    
Max Wind Speed 14 mph    
Max Gust Speed 17 mph    
Visibility 10 miles    
Events      
Averages and records for this station are not official NWS values.
T = Trace of Precipitation, MM = Missing Value Source: NWS Daily Summary

Daily Weather History Graph

Daily Weather History Graph

Search for Another Location

Airport or City:

Trip Planner

Search our weather history database for the weather conditions in past years. The results will help you decide how hot, cold, wet, or windy it might be!

Date:

Astronomy

Mar. 26, 2014 Rise Set
Actual Time 6:22 AM HST 6:36 PM HST
Civil Twilight 6:00 AM HST 6:58 PM HST
Nautical Twilight 5:35 AM HST 7:24 PM HST
Astronomical Twilight 5:09 AM HST 7:50 PM HST
Moon 3:07 AM HST (3/26) 2:57 PM HST (3/26)
Length of Visible Light 12h 58m
Length of Day
12h 14m
Waning Crescent, 19% of the Moon is Illuminated
Mar 26
Waning Crescent
Mar 30
New
Apr 6
First Quarter
Apr 14
Full
Apr 21
Last Quarter

Hourly Weather History & Observations

Time (HST) Temp. Heat Index Dew Point Humidity Pressure Visibility Wind Dir Wind Speed Gust Speed Precip Events Conditions
12:53 AM 73.0 °F - 64.0 °F 73% 30.09 in 10.0 mi Calm Calm - N/A   Scattered Clouds
1:53 AM 73.0 °F - 64.9 °F 76% 30.08 in 10.0 mi North 6.9 mph - N/A   Mostly Cloudy
2:53 AM 75.0 °F - 64.9 °F 71% 30.06 in 10.0 mi NNE 10.4 mph - N/A   Partly Cloudy
3:53 AM 75.0 °F - 64.0 °F 69% 30.05 in 10.0 mi NNE 9.2 mph - N/A   Clear
4:53 AM 75.9 °F - 63.0 °F 64% 30.06 in 10.0 mi NNE 9.2 mph - N/A   Clear
5:53 AM 73.9 °F - 64.0 °F 71% 30.08 in 10.0 mi NNE 8.1 mph - N/A   Clear
6:53 AM 73.9 °F - 62.1 °F 66% 30.09 in 10.0 mi NE 6.9 mph - N/A   Clear
7:53 AM 79.0 °F - 63.0 °F 58% 30.11 in 10.0 mi Calm Calm - N/A   Clear
8:53 AM 81.0 °F 81.9 °F 62.1 °F 52% 30.12 in 10.0 mi Variable 3.5 mph - N/A   Clear
9:53 AM 82.0 °F 83.4 °F 64.0 °F 54% 30.12 in 10.0 mi SSW 9.2 mph - N/A   Clear
10:53 AM 84.0 °F 85.8 °F 64.9 °F 53% 30.10 in 10.0 mi SSW 10.4 mph - N/A   Clear
11:53 AM 82.9 °F 84.6 °F 64.9 °F 54% 30.08 in 10.0 mi SSW 10.4 mph 17.3 mph N/A   Clear
12:53 PM 84.0 °F 85.8 °F 64.9 °F 53% 30.06 in 10.0 mi SSW 12.7 mph - N/A   Clear
1:53 PM 84.0 °F 86.3 °F 66.0 °F 55% 30.04 in 10.0 mi SSW 12.7 mph - N/A   Clear
2:53 PM 84.0 °F 86.5 °F 66.9 °F 56% 30.03 in 10.0 mi SSW 12.7 mph - N/A   Clear
3:53 PM 82.9 °F 85.0 °F 66.0 °F 56% 30.03 in 10.0 mi SSW 11.5 mph - N/A   Clear
4:53 PM 82.0 °F 84.9 °F 68.0 °F 62% 30.03 in 10.0 mi SSW 10.4 mph - N/A   Clear
5:53 PM 81.0 °F 83.3 °F 66.9 °F 62% 30.03 in 10.0 mi SW 6.9 mph - N/A   Clear
6:53 PM 79.0 °F - 66.9 °F 66% 30.04 in 10.0 mi NW 5.8 mph - N/A   Partly Cloudy
7:53 PM 79.0 °F - 68.0 °F 69% 30.05 in 10.0 mi NW 8.1 mph - N/A   Scattered Clouds
8:50 PM 78.8 °F - 69.8 °F 74% 30.06 in 10.0 mi West 10.4 mph - N/A   Overcast
8:53 PM 79.0 °F - 69.1 °F 72% 30.07 in 10.0 mi West 12.7 mph - N/A   Overcast
9:08 PM 78.8 °F - 69.8 °F 74% 30.07 in 10.0 mi West 12.7 mph - N/A   Overcast
9:53 PM 78.1 °F - 69.1 °F 74% 30.09 in 10.0 mi West 13.8 mph - N/A   Overcast
10:53 PM 78.1 °F - 71.1 °F 79% 30.09 in 10.0 mi West 11.5 mph - N/A   Overcast
11:53 PM 78.1 °F - 70.0 °F 76% 30.09 in 10.0 mi West 8.1 mph - N/A   Overcast